Location: Maccacari
(45.1333°N, 11.1333°E)
Time: 01:21:05
(UTC+00:00)

A-11 Canister half - Pass Details

Date: 22 January 2021
Orbit: 1525 x 1684 km, 47.3° (Epoch: 07 March)

Event Time Altitude Azimuth Distance (km) Brightness Sun altitude
Rises 15:09:27 0° 244° (WSW) 4,676 13.5 8.0°
Reaches altitude 10° 15:12:27 10° 243° (WSW) 3,705 13.3 7.6°
Maximum altitude 15:21:50 82° 157° (SSE) 1,580 9.3 6.3°
Drops below altitude 10° 15:31:32 10° 72° (ENE) 3,822 10.5 4.9°
Sets 15:34:41 0° 72° (ENE) 4,831 11.0 4.4°
